Time,TemperatureF,DewpointF,PressureIn,WindDirection,WindDirectionDegrees,WindSpeedMPH,WindSpeedGustMPH,Humidity,HourlyPrecipIn,Conditions,Clouds,dailyrainin,SoftwareType,DateUTC
2013-06-20 00:01:00,78.9,49.7,30.05,ENE,67,2.0,4.0,36,0.00,,,0.00,WeatherCatV1.02B3,2013-06-20 04:01:00,
2013-06-20 00:06:00,78.9,49.7,30.05,ENE,67,3.0,5.0,36,0.00,,,0.00,WeatherCatV1.02B3,2013-06-20 04:06:00,
2013-06-20 00:11:00,78.7,48.7,30.05,ENE,67,0.0,4.0,35,0.00,,,0.00,WeatherCatV1.02B3,2013-06-20 04:11:00,
2013-06-20 00:16:00,78.7,48.7,30.05,ENE,67,2.0,3.0,35,0.00,,,0.00,WeatherCatV1.02B3,2013-06-20 04:16:00,
2013-06-20 00:21:00,78.7,48.7,30.06,ENE,67,4.0,5.0,35,0.00,,,0.00,WeatherCatV1.02B3,2013-06-20 04:21:00,
2013-06-20 00:26:00,78.7,48.7,30.06,ENE,67,0.0,5.0,35,0.00,,,0.00,WeatherCatV1.02B3,2013-06-20 04:26:00,
2013-06-20 00:31:00,78.7,47.9,30.06,ENE,67,3.0,4.0,34,0.00,,,0.00,WeatherCatV1.02B3,2013-06-20 04:31:00,
2013-06-20 00:36:00,78.7,47.9,30.06,East,101,6.0,11.0,34,0.00,,,0.00,WeatherCatV1.02B3,2013-06-20 04:36:00,
2013-06-20 00:41:00,78.6,47.9,30.06,ESE,105,5.0,11.0,34,0.00,,,0.00,WeatherCatV1.02B3,2013-06-20 04:41:00,
2013-06-20 00:46:00,78.5,47.8,30.06,ESE,105,3.0,5.0,34,0.00,,,0.00,WeatherCatV1.02B3,2013-06-20 04:46:00,
2013-06-20 00:51:00,78.5,47.8,30.06,ESE,104,2.0,6.0,34,0.00,,,0.00,WeatherCatV1.02B3,2013-06-20 04:51:00,
2013-06-20 00:56:00,78.5,47.8,30.06,ESE,104,3.0,6.0,34,0.00,,,0.00,WeatherCatV1.02B3,2013-06-20 04:56:00,
2013-06-20 01:01:00,78.4,47.7,30.06,ESE,104,3.0,7.0,34,0.00,,,0.00,WeatherCatV1.02B3,2013-06-20 05:01:00,
2013-06-20 01:06:00,78.4,47.7,30.06,ESE,104,0.0,2.0,34,0.00,,,0.00,WeatherCatV1.02B3,2013-06-20 05:06:00,
2013-06-20 01:11:00,78.4,46.9,30.06,ESE,104,0.0,3.0,33,0.00,,,0.00,WeatherCatV1.02B3,2013-06-20 05:11:00,
2013-06-20 01:16:00,78.4,46.9,30.06,ESE,104,4.0,4.0,33,0.00,,,0.00,WeatherCatV1.02B3,2013-06-20 05:16:00,
2013-06-20 01:21:00,78.3,46.8,30.06,ESE,104,0.0,3.0,33,0.00,,,0.00,WeatherCatV1.02B3,2013-06-20 05:21:00,
2013-06-20 01:26:00,78.3,46.8,30.06,ESE,104,3.0,5.0,33,0.00,,,0.00,WeatherCatV1.02B3,2013-06-20 05:26:00,
2013-06-20 01:31:00,78.2,46.7,30.06,ESE,104,0.0,2.0,33,0.00,,,0.00,WeatherCatV1.02B3,2013-06-20 05:31:00,
2013-06-20 01:36:00,78.2,46.7,30.06,ESE,104,0.0,5.0,33,0.00,,,0.00,WeatherCatV1.02B3,2013-06-20 05:36:00,
2013-06-20 01:41:00,78.2,46.7,30.06,ESE,104,4.0,4.0,33,0.00,,,0.00,WeatherCatV1.02B3,2013-06-20 05:41:00,
2013-06-20 01:46:00,78.1,46.6,30.06,ESE,104,4.0,6.0,33,0.00,,,0.00,WeatherCatV1.02B3,2013-06-20 05:46:00,
2013-06-20 01:51:00,78.1,46.6,30.06,ESE,104,4.0,8.0,33,0.00,,,0.00,WeatherCatV1.02B3,2013-06-20 05:51:00,
2013-06-20 01:56:00,78.0,46.5,30.05,ESE,104,6.0,10.0,33,0.00,,,0.00,WeatherCatV1.02B3,2013-06-20 05:56:00,
2013-06-20 02:01:00,77.9,45.6,30.05,ESE,104,0.0,10.0,32,0.00,,,0.00,WeatherCatV1.02B3,2013-06-20 06:01:00,
2013-06-20 02:06:00,77.9,45.6,30.05,East,100,6.0,10.0,32,0.00,,,0.00,WeatherCatV1.02B3,2013-06-20 06:06:00,
2013-06-20 02:11:00,77.8,45.6,30.05,ESE,107,5.0,6.0,32,0.00,,,0.00,WeatherCatV1.02B3,2013-06-20 06:11:00,
2013-06-20 02:16:00,77.8,45.6,30.04,ESE,107,4.0,6.0,32,0.00,,,0.00,WeatherCatV1.02B3,2013-06-20 06:16:00,
2013-06-20 02:21:00,77.7,45.5,30.04,ESE,107,3.0,5.0,32,0.00,,,0.00,WeatherCatV1.02B3,2013-06-20 06:21:00,
2013-06-20 02:26:00,77.7,45.5,30.04,ESE,107,0.0,5.0,32,0.00,,,0.00,WeatherCatV1.02B3,2013-06-20 06:26:00,
2013-06-20 02:31:00,77.6,45.4,30.04,ESE,107,0.0,0.0,32,0.00,,,0.00,WeatherCatV1.02B3,2013-06-20 06:31:00,
2013-06-20 02:36:00,77.5,45.3,30.03,ESE,107,0.0,0.0,32,0.00,,,0.00,WeatherCatV1.02B3,2013-06-20 06:36:00,
2013-06-20 02:41:00,77.5,45.3,30.03,ESE,107,0.0,0.0,32,0.00,,,0.00,WeatherCatV1.02B3,2013-06-20 06:41:00,
2013-06-20 02:46:00,77.4,45.2,30.03,ESE,107,0.0,1.0,32,0.00,,,0.00,WeatherCatV1.02B3,2013-06-20 06:46:00,
2013-06-20 02:51:00,77.3,45.1,30.03,ESE,107,0.0,0.0,32,0.00,,,0.00,WeatherCatV1.02B3,2013-06-20 06:51:00,
2013-06-20 02:56:00,77.2,45.0,30.03,ESE,107,0.0,0.0,32,0.00,,,0.00,WeatherCatV1.02B3,2013-06-20 06:56:00,
2013-06-20 03:01:00,77.1,44.9,30.03,ESE,107,0.0,0.0,32,0.00,,,0.00,WeatherCatV1.02B3,2013-06-20 07:01:00,
2013-06-20 03:06:00,77.1,44.9,30.03,ESE,107,0.0,0.0,32,0.00,,,0.00,WeatherCatV1.02B3,2013-06-20 07:06:00,
2013-06-20 03:11:00,77.0,44.9,30.03,ESE,107,0.0,0.0,32,0.00,,,0.00,WeatherCatV1.02B3,2013-06-20 07:11:00,
2013-06-20 03:16:00,76.9,44.8,30.03,ESE,107,0.0,0.0,32,0.00,,,0.00,WeatherCatV1.02B3,2013-06-20 07:16:00,
2013-06-20 03:21:00,76.8,44.7,30.03,ESE,107,0.0,0.0,32,0.00,,,0.00,WeatherCatV1.02B3,2013-06-20 07:21:00,
2013-06-20 03:26:00,76.7,45.4,30.03,ESE,107,0.0,0.0,33,0.00,,,0.00,WeatherCatV1.02B3,2013-06-20 07:26:00,
2013-06-20 03:31:00,76.7,45.4,30.03,ESE,107,0.0,0.0,33,0.00,,,0.00,WeatherCatV1.02B3,2013-06-20 07:31:00,
2013-06-20 03:36:00,76.6,45.3,30.03,ESE,107,0.0,0.0,33,0.00,,,0.00,WeatherCatV1.02B3,2013-06-20 07:36:00,
2013-06-20 03:41:00,76.5,45.2,30.03,ESE,107,0.0,0.0,33,0.00,,,0.00,WeatherCatV1.02B3,2013-06-20 07:41:00,
2013-06-20 03:46:00,76.4,45.1,30.03,ESE,107,0.0,0.0,33,0.00,,,0.00,WeatherCatV1.02B3,2013-06-20 07:46:00,
2013-06-20 03:51:00,76.3,45.1,30.03,ESE,107,0.0,0.0,33,0.00,,,0.00,WeatherCatV1.02B3,2013-06-20 07:51:00,
2013-06-20 03:56:00,76.3,45.1,30.03,ESE,107,0.0,0.0,33,0.00,,,0.00,WeatherCatV1.02B3,2013-06-20 07:56:00,
2013-06-20 04:01:00,76.2,45.0,30.03,ESE,107,0.0,0.0,33,0.00,,,0.00,WeatherCatV1.02B3,2013-06-20 08:01:00,
2013-06-20 04:06:00,76.2,45.0,30.03,ESE,107,0.0,0.0,33,0.00,,,0.00,WeatherCatV1.02B3,2013-06-20 08:06:00,
2013-06-20 04:11:00,76.1,44.9,30.03,ESE,107,0.0,0.0,33,0.00,,,0.00,WeatherCatV1.02B3,2013-06-20 08:11:00,
2013-06-20 04:16:00,76.1,44.9,30.02,ESE,107,0.0,0.0,33,0.00,,,0.00,WeatherCatV1.02B3,2013-06-20 08:16:00,
2013-06-20 04:21:00,76.1,44.9,30.02,ESE,107,0.0,0.0,33,0.00,,,0.00,WeatherCatV1.02B3,2013-06-20 08:21:00,
2013-06-20 04:26:00,76.0,44.8,30.02,ESE,107,0.0,0.0,33,0.00,,,0.00,WeatherCatV1.02B3,2013-06-20 08:26:00,
2013-06-20 04:31:00,76.0,44.8,30.02,ESE,107,0.0,0.0,33,0.00,,,0.00,WeatherCatV1.02B3,2013-06-20 08:31:00,
2013-06-20 04:36:00,76.0,44.8,30.02,ESE,107,0.0,0.0,33,0.00,,,0.00,WeatherCatV1.02B3,2013-06-20 08:36:00,
2013-06-20 04:41:00,75.9,44.7,30.02,ESE,107,0.0,0.0,33,0.00,,,0.00,WeatherCatV1.02B3,2013-06-20 08:41:00,
2013-06-20 04:46:00,75.9,44.7,30.02,ESE,107,0.0,0.0,33,0.00,,,0.00,WeatherCatV1.02B3,2013-06-20 08:46:00,
2013-06-20 04:51:00,75.8,44.6,30.02,ESE,107,2.0,3.0,33,0.00,,,0.00,WeatherCatV1.02B3,2013-06-20 08:51:00,
2013-06-20 04:56:00,75.8,44.6,30.02,ESE,107,1.0,4.0,33,0.00,,,0.00,WeatherCatV1.02B3,2013-06-20 08:56:00,
2013-06-20 05:01:00,75.8,44.6,30.02,ESE,107,0.0,3.0,33,0.00,,,0.00,WeatherCatV1.02B3,2013-06-20 09:01:00,
2013-06-20 05:06:00,75.7,44.5,30.02,ESE,107,1.0,2.0,33,0.00,,,0.00,WeatherCatV1.02B3,2013-06-20 09:06:00,
2013-06-20 05:11:00,75.7,44.5,30.02,ESE,107,0.0,4.0,33,0.00,,,0.00,WeatherCatV1.02B3,2013-06-20 09:11:00,
2013-06-20 05:16:00,75.7,44.5,30.02,ESE,107,2.0,4.0,33,0.00,,,0.00,WeatherCatV1.02B3,2013-06-20 09:16:00,
2013-06-20 05:21:00,75.7,44.5,30.02,ESE,107,0.0,0.0,33,0.00,,,0.00,WeatherCatV1.02B3,2013-06-20 09:21:00,
2013-06-20 05:26:00,75.7,44.5,30.02,ESE,107,0.0,3.0,33,0.00,,,0.00,WeatherCatV1.02B3,2013-06-20 09:26:00,
2013-06-20 05:31:00,75.7,44.5,30.02,ESE,107,0.0,0.0,33,0.00,,,0.00,WeatherCatV1.02B3,2013-06-20 09:31:00,
2013-06-20 05:36:00,75.6,44.5,30.02,ESE,107,0.0,0.0,33,0.00,,,0.00,WeatherCatV1.02B3,2013-06-20 09:36:00,
2013-06-20 05:41:00,75.7,44.5,30.03,ESE,107,0.0,0.0,33,0.00,,,0.00,WeatherCatV1.02B3,2013-06-20 09:41:00,
2013-06-20 05:46:00,75.6,44.5,30.03,ESE,107,0.0,0.0,33,0.00,,,0.00,WeatherCatV1.02B3,2013-06-20 09:46:00,
2013-06-20 05:51:00,75.6,44.5,30.03,ESE,107,0.0,0.0,33,0.00,,,0.00,WeatherCatV1.02B3,2013-06-20 09:51:00,
2013-06-20 05:56:00,75.6,44.5,30.03,ESE,107,0.0,0.0,33,0.00,,,0.00,WeatherCatV1.02B3,2013-06-20 09:56:00,
2013-06-20 06:01:00,75.5,44.4,30.03,East,87,0.0,0.0,33,0.00,,,0.00,WeatherCatV1.02B3,2013-06-20 10:01:00,
2013-06-20 06:06:00,75.5,44.4,30.04,East,87,0.0,0.0,33,0.00,,,0.00,WeatherCatV1.02B3,2013-06-20 10:06:00,
2013-06-20 06:11:00,75.4,44.3,30.04,East,87,0.0,0.0,33,0.00,,,0.00,WeatherCatV1.02B3,2013-06-20 10:11:00,
2013-06-20 06:16:00,75.3,44.2,30.04,East,87,0.0,0.0,33,0.00,,,0.00,WeatherCatV1.02B3,2013-06-20 10:16:00,
2013-06-20 06:21:00,75.3,43.4,30.04,East,87,0.0,0.0,32,0.00,,,0.00,WeatherCatV1.02B3,2013-06-20 10:21:00,
2013-06-20 06:26:00,75.2,43.3,30.05,East,87,0.0,0.0,32,0.00,,,0.00,WeatherCatV1.02B3,2013-06-20 10:26:00,
2013-06-20 06:31:00,75.1,43.2,30.05,East,87,0.0,0.0,32,0.00,,,0.00,WeatherCatV1.02B3,2013-06-20 10:31:00,
2013-06-20 06:36:00,75.1,43.2,30.05,East,87,0.0,0.0,32,0.00,,,0.00,WeatherCatV1.02B3,2013-06-20 10:36:00,
2013-06-20 06:41:00,75.0,43.1,30.05,East,87,0.0,0.0,32,0.00,,,0.00,WeatherCatV1.02B3,2013-06-20 10:41:00,
2013-06-20 06:46:00,75.0,43.1,30.05,East,87,0.0,0.0,32,0.00,,,0.00,WeatherCatV1.02B3,2013-06-20 10:46:00,
2013-06-20 06:51:00,74.9,43.0,30.05,East,87,0.0,0.0,32,0.00,,,0.00,WeatherCatV1.02B3,2013-06-20 10:51:00,
2013-06-20 06:56:00,74.9,43.0,30.05,East,87,0.0,0.0,32,0.00,,,0.00,WeatherCatV1.02B3,2013-06-20 10:56:00,
2013-06-20 07:01:00,75.0,43.1,30.06,East,87,0.0,0.0,32,0.00,,,0.00,WeatherCatV1.02B3,2013-06-20 11:01:00,
2013-06-20 07:06:00,75.0,43.1,30.06,East,87,0.0,0.0,32,0.00,,,0.00,WeatherCatV1.02B3,2013-06-20 11:06:00,
2013-06-20 07:11:00,75.0,43.1,30.06,East,87,0.0,0.0,32,0.00,,,0.00,WeatherCatV1.02B3,2013-06-20 11:11:00,
2013-06-20 07:16:00,75.0,43.1,30.06,East,87,0.0,0.0,32,0.00,,,0.00,WeatherCatV1.02B3,2013-06-20 11:16:00,
2013-06-20 07:21:00,75.0,43.1,30.07,East,87,0.0,0.0,32,0.00,,,0.00,WeatherCatV1.02B3,2013-06-20 11:21:00,
2013-06-20 07:26:00,75.1,43.2,30.07,East,87,0.0,0.0,32,0.00,,,0.00,WeatherCatV1.02B3,2013-06-20 11:26:00,
2013-06-20 07:31:00,75.1,43.2,30.07,East,87,0.0,0.0,32,0.00,,,0.00,WeatherCatV1.02B3,2013-06-20 11:31:00,
2013-06-20 07:36:00,75.3,42.6,30.07,East,87,0.0,0.0,31,0.00,,,0.00,WeatherCatV1.02B3,2013-06-20 11:36:00,
2013-06-20 07:41:00,75.4,42.6,30.07,East,87,0.0,0.0,31,0.00,,,0.00,WeatherCatV1.02B3,2013-06-20 11:41:00,
2013-06-20 07:46:00,75.4,42.6,30.07,East,87,0.0,0.0,31,0.00,,,0.00,WeatherCatV1.02B3,2013-06-20 11:46:00,
2013-06-20 07:51:00,75.6,42.8,30.07,East,87,0.0,0.0,31,0.00,,,0.00,WeatherCatV1.02B3,2013-06-20 11:51:00,
2013-06-20 07:56:00,75.7,42.9,30.07,East,87,0.0,0.0,31,0.00,,,0.00,WeatherCatV1.02B3,2013-06-20 11:56:00,
2013-06-20 08:01:00,75.8,43.0,30.07,East,87,0.0,0.0,31,0.00,,,0.00,WeatherCatV1.02B3,2013-06-20 12:01:00,
2013-06-20 08:06:00,76.0,43.2,30.07,East,87,0.0,0.0,31,0.00,,,0.00,WeatherCatV1.02B3,2013-06-20 12:06:00,
2013-06-20 08:11:00,76.1,43.2,30.07,East,87,3.0,3.0,31,0.00,,,0.00,WeatherCatV1.02B3,2013-06-20 12:11:00,
2013-06-20 08:16:00,76.3,43.4,30.08,East,87,0.0,3.0,31,0.00,,,0.00,WeatherCatV1.02B3,2013-06-20 12:16:00,
2013-06-20 08:21:00,76.5,43.6,30.08,East,87,0.0,2.0,31,0.00,,,0.00,WeatherCatV1.02B3,2013-06-20 12:21:00,
2013-06-20 08:26:00,76.7,43.8,30.08,East,87,0.0,0.0,31,0.00,,,0.00,WeatherCatV1.02B3,2013-06-20 12:26:00,
2013-06-20 08:31:00,77.0,44.0,30.08,East,87,0.0,0.0,31,0.00,,,0.00,WeatherCatV1.02B3,2013-06-20 12:31:00,
2013-06-20 08:36:00,77.2,44.2,30.08,East,87,0.0,0.0,31,0.00,,,0.00,WeatherCatV1.02B3,2013-06-20 12:36:00,
2013-06-20 08:41:00,77.5,44.5,30.08,East,87,1.0,5.0,31,0.00,,,0.00,WeatherCatV1.02B3,2013-06-20 12:41:00,
2013-06-20 08:46:00,77.7,44.6,30.08,East,87,0.0,0.0,31,0.00,,,0.00,WeatherCatV1.02B3,2013-06-20 12:46:00,
2013-06-20 08:51:00,78.0,44.9,30.08,East,87,0.0,0.0,31,0.00,,,0.00,WeatherCatV1.02B3,2013-06-20 12:51:00,
2013-06-20 08:56:00,78.2,45.1,30.08,East,87,1.0,2.0,31,0.00,,,0.00,WeatherCatV1.02B3,2013-06-20 12:56:00,
2013-06-20 09:01:00,78.5,45.3,30.08,East,87,0.0,0.0,31,0.00,,,0.00,WeatherCatV1.02B3,2013-06-20 13:01:00,
2013-06-20 09:06:00,78.7,45.5,30.09,East,87,0.0,3.0,31,0.00,,,0.00,WeatherCatV1.02B3,2013-06-20 13:06:00,
2013-06-20 09:11:00,79.1,45.8,30.09,East,87,0.0,0.0,31,0.00,,,0.00,WeatherCatV1.02B3,2013-06-20 13:11:00,
2013-06-20 09:16:00,80.0,46.6,30.09,East,87,0.0,4.0,31,0.00,,,0.00,WeatherCatV1.02B3,2013-06-20 13:16:00,
2013-06-20 09:21:00,80.5,48.7,30.09,East,87,0.0,3.0,33,0.00,,,0.00,WeatherCatV1.02B3,2013-06-20 13:21:00,
2013-06-20 09:26:00,81.1,50.0,30.09,East,87,0.0,1.0,34,0.00,,,0.00,WeatherCatV1.02B3,2013-06-20 13:26:00,
2013-06-20 09:31:00,81.5,51.2,30.09,East,87,0.0,1.0,35,0.00,,,0.00,WeatherCatV1.02B3,2013-06-20 13:31:00,
2013-06-20 09:36:00,81.8,53.0,30.09,East,87,0.0,0.0,37,0.00,,,0.00,WeatherCatV1.02B3,2013-06-20 13:36:00,
2013-06-20 09:41:00,82.4,54.2,30.09,East,87,3.0,3.0,38,0.00,,,0.00,WeatherCatV1.02B3,2013-06-20 13:41:00,
2013-06-20 09:46:00,83.0,54.0,30.09,East,87,5.0,5.0,37,0.00,,,0.00,WeatherCatV1.02B3,2013-06-20 13:46:00,
2013-06-20 09:51:00,82.9,56.1,30.09,East,87,0.0,0.0,40,0.00,,,0.00,WeatherCatV1.02B3,2013-06-20 13:51:00,
2013-06-20 09:56:00,83.4,56.5,30.09,East,87,1.0,1.0,40,0.00,,,0.00,WeatherCatV1.02B3,2013-06-20 13:56:00,
2013-06-20 10:01:00,83.9,57.0,30.09,East,87,3.0,4.0,40,0.00,,,0.00,WeatherCatV1.02B3,2013-06-20 14:01:00,
2013-06-20 10:06:00,84.5,56.8,30.09,East,87,0.0,1.0,39,0.00,,,0.00,WeatherCatV1.02B3,2013-06-20 14:06:00,
2013-06-20 10:11:00,84.5,60.2,30.09,East,87,1.0,5.0,44,0.00,,,0.00,WeatherCatV1.02B3,2013-06-20 14:11:00,
2013-06-20 10:16:00,85.0,59.3,30.09,East,87,0.0,3.0,42,0.00,,,0.00,WeatherCatV1.02B3,2013-06-20 14:16:00,
2013-06-20 10:21:00,84.6,62.7,30.09,East,87,0.0,3.0,48,0.00,,,0.00,WeatherCatV1.02B3,2013-06-20 14:21:00,
2013-06-20 10:26:00,84.5,62.0,30.09,East,87,3.0,6.0,47,0.00,,,0.00,WeatherCatV1.02B3,2013-06-20 14:26:00,
2013-06-20 10:31:00,84.1,60.4,30.09,East,87,0.0,1.0,45,0.00,,,0.00,WeatherCatV1.02B3,2013-06-20 14:31:00,
2013-06-20 10:36:00,84.1,61.1,30.09,East,87,2.0,5.0,46,0.00,,,0.00,WeatherCatV1.02B3,2013-06-20 14:36:00,
2013-06-20 10:41:00,84.6,58.3,30.09,East,87,0.0,2.0,41,0.00,,,0.00,WeatherCatV1.02B3,2013-06-20 14:41:00,
2013-06-20 10:46:00,84.9,62.4,30.09,East,87,0.0,1.0,47,0.00,,,0.00,WeatherCatV1.02B3,2013-06-20 14:46:00,
2013-06-20 10:51:00,85.2,61.4,30.09,East,87,4.0,7.0,45,0.00,,,0.00,WeatherCatV1.02B3,2013-06-20 14:51:00,
2013-06-20 10:56:00,84.5,62.0,30.09,East,87,0.0,3.0,47,0.00,,,0.00,WeatherCatV1.02B3,2013-06-20 14:56:00,
2013-06-20 11:01:00,85.2,61.4,30.09,East,87,4.0,6.0,45,0.00,,,0.00,WeatherCatV1.02B3,2013-06-20 15:01:00,
2013-06-20 11:06:00,85.9,62.1,30.09,ESE,104,5.0,7.0,45,0.00,,,0.00,WeatherCatV1.02B3,2013-06-20 15:06:00,
2013-06-20 11:11:00,85.4,63.4,30.09,ESE,111,0.0,9.0,48,0.00,,,0.00,WeatherCatV1.02B3,2013-06-20 15:11:00,
2013-06-20 11:16:00,85.3,60.2,30.09,ESE,112,1.0,6.0,43,0.00,,,0.00,WeatherCatV1.02B3,2013-06-20 15:16:00,
2013-06-20 11:21:00,85.8,63.2,30.09,ESE,112,2.0,9.0,47,0.00,,,0.00,WeatherCatV1.02B3,2013-06-20 15:21:00,
2013-06-20 11:26:00,85.6,64.2,30.09,ESE,118,3.0,9.0,49,0.00,,,0.00,WeatherCatV1.02B3,2013-06-20 15:26:00,
2013-06-20 11:31:00,85.0,63.7,30.09,ESE,121,3.0,4.0,49,0.00,,,0.00,WeatherCatV1.02B3,2013-06-20 15:31:00,
2013-06-20 11:36:00,86.2,63.6,30.09,SSE,158,4.0,7.0,47,0.00,,,0.00,WeatherCatV1.02B3,2013-06-20 15:36:00,
2013-06-20 11:41:00,86.7,65.2,30.09,SSE,156,4.0,5.0,49,0.00,,,0.00,WeatherCatV1.02B3,2013-06-20 15:41:00,
2013-06-20 11:46:00,87.1,64.4,30.09,SSE,155,0.0,1.0,47,0.00,,,0.00,WeatherCatV1.02B3,2013-06-20 15:46:00,
2013-06-20 11:51:00,87.4,65.9,30.09,SSE,148,0.0,7.0,49,0.00,,,0.00,WeatherCatV1.02B3,2013-06-20 15:51:00,
2013-06-20 11:56:00,87.4,68.7,30.09,SSE,148,3.0,5.0,54,0.00,,,0.00,WeatherCatV1.02B3,2013-06-20 15:56:00,
2013-06-20 12:01:00,87.6,68.3,30.09,SSE,148,0.0,4.0,53,0.00,,,0.00,WeatherCatV1.02B3,2013-06-20 16:01:00,
2013-06-20 12:06:00,88.2,68.9,30.09,SSE,148,0.0,3.0,53,0.00,,,0.00,WeatherCatV1.02B3,2013-06-20 16:06:00,
2013-06-20 12:11:00,87.7,67.9,30.09,SE,140,3.0,8.0,52,0.00,,,0.00,WeatherCatV1.02B3,2013-06-20 16:11:00,
2013-06-20 12:16:00,88.1,67.1,30.09,SE,141,5.0,5.0,50,0.00,,,0.00,WeatherCatV1.02B3,2013-06-20 16:16:00,
2013-06-20 12:21:00,88.8,70.0,30.09,SE,146,4.0,8.0,54,0.00,,,0.00,WeatherCatV1.02B3,2013-06-20 16:21:00,
2013-06-20 12:26:00,89.1,70.2,30.09,SE,146,0.0,2.0,54,0.00,,,0.00,WeatherCatV1.02B3,2013-06-20 16:26:00,
2013-06-20 12:31:00,89.0,70.7,30.09,SSE,157,0.0,4.0,55,0.00,,,0.00,WeatherCatV1.02B3,2013-06-20 16:31:00,
2013-06-20 12:36:00,89.2,71.9,30.08,SSW,194,5.0,9.0,57,0.00,,,0.00,WeatherCatV1.02B3,2013-06-20 16:36:00,
2013-06-20 12:41:00,88.8,71.6,30.08,SSW,213,2.0,4.0,57,0.00,,,0.00,WeatherCatV1.02B3,2013-06-20 16:41:00,
2013-06-20 12:46:00,88.4,70.1,30.08,SSW,213,0.0,1.0,55,0.00,,,0.00,WeatherCatV1.02B3,2013-06-20 16:46:00,
2013-06-20 12:51:00,88.9,71.7,30.08,SSW,212,5.0,6.0,57,0.00,,,0.00,WeatherCatV1.02B3,2013-06-20 16:51:00,
2013-06-20 12:56:00,89.3,71.5,30.08,SSW,212,2.0,4.0,56,0.00,,,0.00,WeatherCatV1.02B3,2013-06-20 16:56:00,
2013-06-20 13:01:00,88.9,72.2,30.08,SSW,212,0.0,0.0,58,0.00,,,0.00,WeatherCatV1.02B3,2013-06-20 17:01:00,
2013-06-20 13:06:00,89.7,72.9,30.08,SSW,212,5.0,7.0,58,0.00,,,0.00,WeatherCatV1.02B3,2013-06-20 17:06:00,
2013-06-20 13:11:00,90.4,73.6,30.08,SSW,212,0.0,0.0,58,0.00,,,0.00,WeatherCatV1.02B3,2013-06-20 17:11:00,
2013-06-20 13:16:00,90.9,74.0,30.07,SSW,212,0.0,1.0,58,0.00,,,0.00,WeatherCatV1.02B3,2013-06-20 17:16:00,
2013-06-20 13:21:00,91.1,74.7,30.07,SSW,212,0.0,1.0,59,0.00,,,0.00,WeatherCatV1.02B3,2013-06-20 17:21:00,
2013-06-20 13:26:00,91.7,75.3,30.07,South,180,3.0,4.0,59,0.00,,,0.00,WeatherCatV1.02B3,2013-06-20 17:26:00,
2013-06-20 13:31:00,91.6,75.2,30.07,South,180,1.0,7.0,59,0.00,,,0.00,WeatherCatV1.02B3,2013-06-20 17:31:00,
2013-06-20 13:36:00,91.7,75.3,30.06,South,180,1.0,6.0,59,0.00,,,0.00,WeatherCatV1.02B3,2013-06-20 17:36:00,
2013-06-20 13:41:00,91.5,75.1,30.06,South,180,0.0,7.0,59,0.00,,,0.00,WeatherCatV1.02B3,2013-06-20 17:41:00,
2013-06-20 13:46:00,91.9,75.5,30.05,SW,214,3.0,4.0,59,0.00,,,0.00,WeatherCatV1.02B3,2013-06-20 17:46:00,
2013-06-20 13:51:00,92.0,75.1,30.05,SW,214,2.0,8.0,58,0.00,,,0.00,WeatherCatV1.02B3,2013-06-20 17:51:00,
2013-06-20 13:56:00,91.8,74.9,30.05,SW,214,0.0,0.0,58,0.00,,,0.00,WeatherCatV1.02B3,2013-06-20 17:56:00,
2013-06-20 14:01:00,91.8,75.9,30.05,SW,214,3.0,4.0,60,0.00,,,0.00,WeatherCatV1.02B3,2013-06-20 18:01:00,
2013-06-20 14:06:00,92.0,75.1,30.05,SW,227,0.0,1.0,58,0.00,,,0.00,WeatherCatV1.02B3,2013-06-20 18:06:00,
2013-06-20 14:11:00,92.6,76.6,30.06,SW,227,0.0,0.0,60,0.00,,,0.00,WeatherCatV1.02B3,2013-06-20 18:11:00,
2013-06-20 14:16:00,92.4,75.9,30.05,SW,227,0.0,1.0,59,0.00,,,0.00,WeatherCatV1.02B3,2013-06-20 18:16:00,
2013-06-20 14:21:00,92.3,75.9,30.05,SW,227,0.0,4.0,59,0.00,,,0.00,WeatherCatV1.02B3,2013-06-20 18:21:00,
2013-06-20 14:26:00,92.8,76.3,30.05,SW,226,2.0,6.0,59,0.00,,,0.00,WeatherCatV1.02B3,2013-06-20 18:26:00,
2013-06-20 14:31:00,92.7,75.7,30.05,SW,234,2.0,6.0,58,0.00,,,0.00,WeatherCatV1.02B3,2013-06-20 18:31:00,
2013-06-20 14:36:00,92.8,76.3,30.05,WSW,248,4.0,7.0,59,0.00,,,0.00,WeatherCatV1.02B3,2013-06-20 18:36:00,
2013-06-20 14:41:00,93.2,77.2,30.04,WSW,248,1.0,4.0,60,0.00,,,0.00,WeatherCatV1.02B3,2013-06-20 18:41:00,
2013-06-20 14:46:00,93.0,74.4,30.04,WSW,248,0.0,2.0,55,0.00,,,0.00,WeatherCatV1.02B3,2013-06-20 18:46:00,
2013-06-20 14:51:00,93.9,76.8,30.04,WSW,251,1.0,5.0,58,0.00,,,0.00,WeatherCatV1.02B3,2013-06-20 18:51:00,
2013-06-20 14:56:00,93.8,76.2,30.03,WSW,250,4.0,8.0,57,0.00,,,0.00,WeatherCatV1.02B3,2013-06-20 18:56:00,
2013-06-20 15:01:00,93.6,76.6,30.03,WNW,290,2.0,9.0,58,0.00,,,0.00,WeatherCatV1.02B3,2013-06-20 19:01:00,
2013-06-20 15:06:00,93.7,76.1,30.03,WNW,302,3.0,4.0,57,0.00,,,0.00,WeatherCatV1.02B3,2013-06-20 19:06:00,
2013-06-20 15:11:00,92.9,75.4,30.02,WNW,301,0.0,0.0,57,0.00,,,0.00,WeatherCatV1.02B3,2013-06-20 19:11:00,
2013-06-20 15:16:00,92.5,75.0,30.02,WNW,301,0.0,3.0,57,0.00,,,0.00,WeatherCatV1.02B3,2013-06-20 19:16:00,
2013-06-20 15:21:00,92.9,75.9,30.02,WSW,248,6.0,11.0,58,0.00,,,0.00,WeatherCatV1.02B3,2013-06-20 19:21:00,
2013-06-20 15:26:00,93.2,75.1,30.02,WSW,256,2.0,7.0,56,0.00,,,0.00,WeatherCatV1.02B3,2013-06-20 19:26:00,
2013-06-20 15:31:00,93.7,75.0,30.02,South,191,11.0,13.0,55,0.00,,,0.00,WeatherCatV1.02B3,2013-06-20 19:31:00,
2013-06-20 15:36:00,93.4,74.8,30.02,SW,214,1.0,11.0,55,0.00,,,0.00,WeatherCatV1.02B3,2013-06-20 19:36:00,
2013-06-20 15:41:00,92.5,73.9,30.03,SW,229,4.0,10.0,55,0.00,,,0.00,WeatherCatV1.02B3,2013-06-20 19:41:00,
2013-06-20 15:46:00,91.7,73.2,30.02,SW,236,0.0,4.0,55,0.00,,,0.00,WeatherCatV1.02B3,2013-06-20 19:46:00,
2013-06-20 15:51:00,91.0,74.1,30.03,SW,236,4.0,6.0,58,0.00,,,0.00,WeatherCatV1.02B3,2013-06-20 19:51:00,
2013-06-20 15:56:00,90.5,74.2,30.03,SSW,211,5.0,7.0,59,0.00,,,0.00,WeatherCatV1.02B3,2013-06-20 19:56:00,
2013-06-20 16:01:00,89.6,74.3,30.02,South,188,9.0,13.0,61,0.00,,,0.00,WeatherCatV1.02B3,2013-06-20 20:01:00,
2013-06-20 16:06:00,88.9,73.7,30.02,South,191,5.0,8.0,61,0.00,,,0.00,WeatherCatV1.02B3,2013-06-20 20:06:00,
2013-06-20 16:11:00,88.2,73.5,30.02,South,183,6.0,9.0,62,0.00,,,0.00,WeatherCatV1.02B3,2013-06-20 20:11:00,
2013-06-20 16:16:00,86.9,71.3,30.02,SSE,151,3.0,5.0,60,0.00,,,0.00,WeatherCatV1.02B3,2013-06-20 20:16:00,
2013-06-20 16:21:00,85.7,66.6,30.02,SSE,147,3.0,6.0,53,0.00,,,0.00,WeatherCatV1.02B3,2013-06-20 20:21:00,
2013-06-20 16:26:00,85.6,63.6,30.01,SSE,147,0.0,1.0,48,0.00,,,0.00,WeatherCatV1.02B3,2013-06-20 20:26:00,
2013-06-20 16:31:00,85.9,65.1,30.01,SSE,147,0.0,1.0,50,0.00,,,0.00,WeatherCatV1.02B3,2013-06-20 20:31:00,
2013-06-20 16:36:00,86.3,67.1,30.01,ESE,105,9.0,10.0,53,0.00,,,0.00,WeatherCatV1.02B3,2013-06-20 20:36:00,
2013-06-20 16:41:00,85.4,68.9,30.02,ESE,103,5.0,12.0,58,0.00,,,0.00,WeatherCatV1.02B3,2013-06-20 20:41:00,
2013-06-20 16:46:00,84.2,68.3,30.03,ESE,102,4.0,5.0,59,0.00,,,0.00,WeatherCatV1.02B3,2013-06-20 20:46:00,
2013-06-20 16:51:00,83.4,67.5,30.03,NNE,23,0.0,5.0,59,0.00,,,0.00,WeatherCatV1.02B3,2013-06-20 20:51:00,
2013-06-20 16:56:00,83.0,66.7,30.03,NE,36,5.0,8.0,58,0.00,,,0.00,WeatherCatV1.02B3,2013-06-20 20:56:00,
2013-06-20 17:01:00,82.7,66.4,30.03,NE,50,4.0,7.0,58,0.00,,,0.00,WeatherCatV1.02B3,2013-06-20 21:01:00,
2013-06-20 17:06:00,82.5,65.2,30.03,NE,43,5.0,5.0,56,0.00,,,0.00,WeatherCatV1.02B3,2013-06-20 21:06:00,
2013-06-20 17:11:00,82.3,65.5,30.04,ENE,76,0.0,8.0,57,0.00,,,0.00,WeatherCatV1.02B3,2013-06-20 21:11:00,
2013-06-20 17:16:00,82.0,65.2,30.04,ENE,69,3.0,7.0,57,0.00,,,0.00,WeatherCatV1.02B3,2013-06-20 21:16:00,
2013-06-20 17:21:00,81.7,65.5,30.06,ENE,69,3.0,4.0,58,0.00,,,0.00,WeatherCatV1.02B3,2013-06-20 21:21:00,
2013-06-20 17:26:00,81.1,64.9,30.06,East,94,6.0,6.0,58,0.00,,,0.00,WeatherCatV1.02B3,2013-06-20 21:26:00,
2013-06-20 17:31:00,80.6,63.9,30.05,East,94,3.0,7.0,57,0.00,,,0.00,WeatherCatV1.02B3,2013-06-20 21:31:00,
2013-06-20 17:36:00,80.4,62.7,30.06,East,94,5.0,5.0,55,0.00,,,0.00,WeatherCatV1.02B3,2013-06-20 21:36:00,
2013-06-20 17:41:00,80.0,62.9,30.07,East,94,3.0,6.0,56,0.00,,,0.00,WeatherCatV1.02B3,2013-06-20 21:41:00,
2013-06-20 17:46:00,79.7,62.6,30.06,East,94,0.0,0.0,56,0.00,,,0.00,WeatherCatV1.02B3,2013-06-20 21:46:00,
2013-06-20 17:51:00,79.6,61.5,30.07,East,94,0.0,0.0,54,0.00,,,0.00,WeatherCatV1.02B3,2013-06-20 21:51:00,
2013-06-20 17:56:00,79.3,61.2,30.09,East,94,0.0,0.0,54,0.00,,,0.00,WeatherCatV1.02B3,2013-06-20 21:56:00,
2013-06-20 18:01:00,79.3,60.1,30.08,East,94,0.0,0.0,52,0.00,,,0.00,WeatherCatV1.02B3,2013-06-20 22:01:00,
2013-06-20 18:06:00,79.0,58.7,30.09,East,94,2.0,3.0,50,0.00,,,0.00,WeatherCatV1.02B3,2013-06-20 22:06:00,
2013-06-20 18:11:00,79.1,55.3,30.09,SSW,212,10.0,14.0,44,0.00,,,0.00,WeatherCatV1.02B3,2013-06-20 22:11:00,
2013-06-20 18:16:00,78.7,54.9,30.10,NW,311,3.0,4.0,44,0.00,,,0.01,WeatherCatV1.02B3,2013-06-20 22:16:00,
2013-06-20 18:21:00,78.7,53.7,30.10,NW,311,0.0,0.0,42,0.29,,,0.04,WeatherCatV1.02B3,2013-06-20 22:21:00,
2013-06-20 18:26:00,78.3,52.6,30.11,WSW,250,2.0,5.0,41,0.13,,,0.05,WeatherCatV1.02B3,2013-06-20 22:26:00,
2013-06-20 18:31:00,77.7,51.4,30.11,SW,222,4.0,10.0,40,1.53,,,0.19,WeatherCatV1.02B3,2013-06-20 22:31:00,
2013-06-20 18:36:00,77.0,49.4,30.10,WSW,243,3.0,6.0,38,1.78,,,0.29,WeatherCatV1.02B3,2013-06-20 22:36:00,
2013-06-20 18:41:00,76.5,48.3,30.10,WSW,238,4.0,5.0,37,0.73,,,0.35,WeatherCatV1.02B3,2013-06-20 22:41:00,
2013-06-20 18:46:00,76.2,47.3,30.11,West,259,3.0,4.0,36,0.23,,,0.39,WeatherCatV1.02B3,2013-06-20 22:46:00,
2013-06-20 18:51:00,76.0,46.4,30.10,West,259,0.0,2.0,35,0.18,,,0.40,WeatherCatV1.02B3,2013-06-20 22:51:00,
2013-06-20 18:56:00,75.8,45.4,30.11,West,259,0.0,4.0,34,0.13,,,0.41,WeatherCatV1.02B3,2013-06-20 22:56:00,
2013-06-20 19:01:00,75.7,45.3,30.10,East,90,6.0,7.0,34,0.09,,,0.42,WeatherCatV1.02B3,2013-06-20 23:01:00,
2013-06-20 19:06:00,75.6,44.5,30.11,ENE,78,3.0,7.0,33,0.10,,,0.43,WeatherCatV1.02B3,2013-06-20 23:06:00,
2013-06-20 19:11:00,75.3,44.2,30.11,East,87,2.0,5.0,33,0.08,,,0.43,WeatherCatV1.02B3,2013-06-20 23:11:00,
2013-06-20 19:16:00,75.2,43.3,30.11,East,84,0.0,5.0,32,0.05,,,0.43,WeatherCatV1.02B3,2013-06-20 23:16:00,
2013-06-20 19:21:00,75.1,43.2,30.11,East,84,0.0,0.0,32,0.04,,,0.44,WeatherCatV1.02B3,2013-06-20 23:21:00,
2013-06-20 19:26:00,75.0,43.1,30.10,East,84,5.0,5.0,32,0.14,,,0.45,WeatherCatV1.02B3,2013-06-20 23:26:00,
2013-06-20 19:31:00,75.0,43.1,30.10,East,87,4.0,10.0,32,0.30,,,0.47,WeatherCatV1.02B3,2013-06-20 23:31:00,
2013-06-20 19:36:00,75.0,43.1,30.10,ESE,112,9.0,10.0,32,0.14,,,0.48,WeatherCatV1.02B3,2013-06-20 23:36:00,
2013-06-20 19:41:00,74.9,43.0,30.10,SE,125,6.0,7.0,32,0.24,,,0.50,WeatherCatV1.02B3,2013-06-20 23:41:00,
2013-06-20 19:46:00,74.7,42.0,30.10,SSE,149,3.0,5.0,31,0.14,,,0.52,WeatherCatV1.02B3,2013-06-20 23:46:00,
2013-06-20 19:51:00,74.5,41.9,30.10,SSE,149,0.0,5.0,31,0.16,,,0.53,WeatherCatV1.02B3,2013-06-20 23:51:00,
2013-06-20 19:56:00,74.4,41.8,30.10,SSE,149,0.0,2.0,31,0.14,,,0.54,WeatherCatV1.02B3,2013-06-20 23:56:00,
2013-06-20 20:01:00,74.3,42.5,30.09,SSE,149,0.0,3.0,32,0.08,,,0.54,WeatherCatV1.02B3,2013-06-21 00:01:00,
2013-06-20 20:06:00,74.2,42.4,30.09,SSE,149,0.0,0.0,32,0.07,,,0.55,WeatherCatV1.02B3,2013-06-21 00:06:00,
2013-06-20 20:11:00,74.2,42.4,30.08,SSE,149,5.0,5.0,32,0.11,,,0.56,WeatherCatV1.02B3,2013-06-21 00:11:00,
2013-06-20 20:16:00,74.2,42.4,30.08,SSE,149,0.0,0.0,32,0.10,,,0.57,WeatherCatV1.02B3,2013-06-21 00:16:00,
2013-06-20 20:21:00,74.2,41.6,30.08,SE,141,1.0,5.0,31,0.08,,,0.57,WeatherCatV1.02B3,2013-06-21 00:21:00,
2013-06-20 20:26:00,74.2,41.6,30.07,ESE,121,4.0,5.0,31,0.05,,,0.57,WeatherCatV1.02B3,2013-06-21 00:26:00,
2013-06-20 20:31:00,74.1,42.3,30.06,East,96,1.0,5.0,32,0.04,,,0.58,WeatherCatV1.02B3,2013-06-21 00:31:00,
2013-06-20 20:36:00,74.1,42.3,30.07,East,91,3.0,4.0,32,0.04,,,0.58,WeatherCatV1.02B3,2013-06-21 00:36:00,
2013-06-20 20:41:00,74.0,42.3,30.07,ESE,110,1.0,4.0,32,0.04,,,0.58,WeatherCatV1.02B3,2013-06-21 00:41:00,
2013-06-20 20:46:00,73.9,42.2,30.07,ESE,110,0.0,0.0,32,0.00,,,0.58,WeatherCatV1.02B3,2013-06-21 00:46:00,
2013-06-20 20:51:00,73.9,42.2,30.07,ESE,110,0.0,0.0,32,0.00,,,0.58,WeatherCatV1.02B3,2013-06-21 00:51:00,
2013-06-20 20:56:00,73.8,42.1,30.07,ESE,110,0.0,0.0,32,0.00,,,0.58,WeatherCatV1.02B3,2013-06-21 00:56:00,
2013-06-20 21:01:00,73.7,42.0,30.07,ESE,110,0.0,0.0,32,0.00,,,0.58,WeatherCatV1.02B3,2013-06-21 01:01:00,
2013-06-20 21:06:00,73.7,42.0,30.07,ESE,110,0.0,0.0,32,0.00,,,0.58,WeatherCatV1.02B3,2013-06-21 01:06:00,
2013-06-20 21:11:00,73.7,42.0,30.07,ESE,110,0.0,0.0,32,0.00,,,0.58,WeatherCatV1.02B3,2013-06-21 01:11:00,
2013-06-20 21:16:00,73.7,42.0,30.07,ESE,110,0.0,0.0,32,0.00,,,0.58,WeatherCatV1.02B3,2013-06-21 01:16:00,
2013-06-20 21:21:00,73.6,41.9,30.07,ESE,110,0.0,0.0,32,0.00,,,0.58,WeatherCatV1.02B3,2013-06-21 01:21:00,
2013-06-20 21:26:00,73.5,41.8,30.07,ESE,110,0.0,0.0,32,0.00,,,0.58,WeatherCatV1.02B3,2013-06-21 01:26:00,
2013-06-20 21:31:00,73.5,41.8,30.07,ESE,110,0.0,0.0,32,0.00,,,0.58,WeatherCatV1.02B3,2013-06-21 01:31:00,
2013-06-20 21:36:00,73.5,41.8,30.07,ESE,110,0.0,0.0,32,0.00,,,0.58,WeatherCatV1.02B3,2013-06-21 01:36:00,
2013-06-20 21:41:00,73.4,41.7,30.07,ESE,110,0.0,0.0,32,0.00,,,0.58,WeatherCatV1.02B3,2013-06-21 01:41:00,
2013-06-20 21:46:00,73.3,41.6,30.07,ESE,110,0.0,0.0,32,0.00,,,0.58,WeatherCatV1.02B3,2013-06-21 01:46:00,
2013-06-20 21:51:00,73.3,41.6,30.07,ESE,110,0.0,0.0,32,0.00,,,0.58,WeatherCatV1.02B3,2013-06-21 01:51:00,
2013-06-20 21:56:00,73.3,41.6,30.07,ESE,110,0.0,2.0,32,0.00,,,0.58,WeatherCatV1.02B3,2013-06-21 01:56:00,
2013-06-20 22:01:00,73.3,41.6,30.07,ESE,110,0.0,0.0,32,0.00,,,0.58,WeatherCatV1.02B3,2013-06-21 02:01:00,
2013-06-20 22:06:00,73.3,41.6,30.07,ESE,110,3.0,4.0,32,0.00,,,0.58,WeatherCatV1.02B3,2013-06-21 02:06:00,
2013-06-20 22:11:00,73.4,41.7,30.07,ESE,107,6.0,7.0,32,0.00,,,0.58,WeatherCatV1.02B3,2013-06-21 02:11:00,
2013-06-20 22:16:00,73.6,41.9,30.06,East,90,4.0,7.0,32,0.00,,,0.58,WeatherCatV1.02B3,2013-06-21 02:16:00,
2013-06-20 22:21:00,73.6,41.9,30.07,East,91,2.0,9.0,32,0.00,,,0.58,WeatherCatV1.02B3,2013-06-21 02:21:00,
2013-06-20 22:26:00,73.6,41.9,30.07,East,94,4.0,9.0,32,0.00,,,0.58,WeatherCatV1.02B3,2013-06-21 02:26:00,
2013-06-20 22:31:00,73.4,41.7,30.07,ESE,102,6.0,8.0,32,0.00,,,0.58,WeatherCatV1.02B3,2013-06-21 02:31:00,
2013-06-20 22:37:00,73.2,41.6,30.07,ESE,102,0.0,6.0,32,0.00,,,0.58,WeatherCatV1.02B3,2013-06-21 02:37:00,
2013-06-20 22:42:00,73.0,41.4,30.08,ESE,102,0.0,2.0,32,0.00,,,0.58,WeatherCatV1.02B3,2013-06-21 02:42:00,
2013-06-20 22:47:00,73.0,41.4,30.08,ESE,102,0.0,0.0,32,0.00,,,0.58,WeatherCatV1.02B3,2013-06-21 02:47:00,
2013-06-20 22:52:00,72.9,41.3,30.08,ESE,102,0.0,0.0,32,0.00,,,0.58,WeatherCatV1.02B3,2013-06-21 02:52:00,
2013-06-20 22:57:00,72.9,41.3,30.08,SSE,159,2.0,6.0,32,0.00,,,0.58,WeatherCatV1.02B3,2013-06-21 02:57:00,
2013-06-20 23:02:00,72.8,41.2,30.09,SSE,159,0.0,0.0,32,0.00,,,0.58,WeatherCatV1.02B3,2013-06-21 03:02:00,
2013-06-20 23:07:00,72.8,41.2,30.09,SSE,159,0.0,0.0,32,0.00,,,0.58,WeatherCatV1.02B3,2013-06-21 03:07:00,
2013-06-20 23:12:00,72.8,41.2,30.09,SSE,159,0.0,0.0,32,0.00,,,0.58,WeatherCatV1.02B3,2013-06-21 03:12:00,
2013-06-20 23:17:00,72.8,41.2,30.09,SSE,159,0.0,3.0,32,0.00,,,0.58,WeatherCatV1.02B3,2013-06-21 03:17:00,
2013-06-20 23:22:00,72.8,41.2,30.09,SSE,159,1.0,4.0,32,0.00,,,0.58,WeatherCatV1.02B3,2013-06-21 03:22:00,
2013-06-20 23:27:00,72.9,41.3,30.09,SSE,159,0.0,3.0,32,0.00,,,0.58,WeatherCatV1.02B3,2013-06-21 03:27:00,
2013-06-20 23:32:00,73.0,41.4,30.09,SW,214,0.0,7.0,32,0.00,,,0.58,WeatherCatV1.02B3,2013-06-21 03:32:00,
2013-06-20 23:37:00,73.0,41.4,30.10,SW,218,3.0,3.0,32,0.00,,,0.58,WeatherCatV1.02B3,2013-06-21 03:37:00,
2013-06-20 23:42:00,73.0,41.4,30.10,WSW,250,0.0,6.0,32,0.00,,,0.58,WeatherCatV1.02B3,2013-06-21 03:42:00,
2013-06-20 23:47:00,73.0,41.4,30.10,WSW,250,4.0,4.0,32,0.00,,,0.58,WeatherCatV1.02B3,2013-06-21 03:47:00,
2013-06-20 23:52:00,72.9,41.3,30.10,West,260,0.0,4.0,32,0.00,,,0.58,WeatherCatV1.02B3,2013-06-21 03:52:00,
2013-06-20 23:57:00,72.9,41.3,30.10,West,260,0.0,0.0,32,0.00,,,0.58,WeatherCatV1.02B3,2013-06-21 03:57:00,